FW4804 Weather Reports


time (UTC)temp
C
wind
direction
speed
KPH
gust
KPH
rain 1hr
cm
rain 24hr
cm
rain mn
cm
humidity
%
barometer
mb
20260506232006 5 0 0.0 0.0 0.00 0.00 0.00 89 1017.6
20260506231005 6 0 0.0 0.0 0.00 0.00 0.00 89 1017.9
20260506230505 6 0 0.0 0.0 0.00 0.00 0.00 90 1017.9
20260506230006 6 0 0.0 0.0 0.00 0.00 0.00 90 1017.8
20260506225505 6 1 0.0 1.6 0.00 0.00 0.00 90 1018.0
20260506225005 6 1 0.0 1.6 0.00 0.00 0.00 90 1018.1
20260506224506 6 1 0.0 1.6 0.00 0.00 0.00 90 1018.1
20260506224005 6 0 0.0 0.0 0.00 0.00 0.00 91 1018.3
20260506223007 6 0 0.0 0.0 0.00 0.00 0.00 91 1018.3
20260506222508 6 0 0.0 0.0 0.00 0.00 0.00 90 1018.3
20260506221508 6 0 0.0 0.0 0.00 0.00 0.00 89 1018.3
20260506221006 6 0 0.0 0.0 0.00 0.00 0.00 89 1018.6
20260506220506 6 0 0.0 0.0 0.00 0.00 0.00 88 1018.5
20260506220006 6 0 0.0 0.0 0.00 0.00 0.00 88 1018.3
20260506215505 6 0 0.0 0.0 0.00 0.00 0.00 88 1018.4
20260506215006 7 0 0.0 0.0 0.00 0.00 0.00 88 1018.5
20260506214505 7 0 0.0 0.0 0.00 0.00 0.00 87 1018.5
20260506214006 7 0 0.0 0.0 0.00 0.00 0.00 86 1018.5
20260506213508 7 0 0.0 0.0 0.00 0.00 0.00 86 1018.6
20260506213006 7 0 0.0 0.0 0.00 0.00 0.00 82 1018.6
20260506212505 7 0 0.0 0.0 0.00 0.00 0.00 82 1018.4
20260506212005 7 0 0.0 0.0 0.00 0.00 0.00 83 1018.4
20260506211505 7 0 0.0 0.0 0.00 0.00 0.00 83 1018.6
20260506211007 7 0 0.0 0.0 0.00 0.00 0.00 87 1018.6
20260506210504 7 0 0.0 0.0 0.00 0.00 0.00 86 1018.7
20260506210009 7 0 0.0 0.0 0.00 0.00 0.00 86 1018.6
20260506205505 7 0 0.0 0.0 0.00 0.00 0.00 80 1018.7
20260506205010 7 0 0.0 0.0 0.00 0.00 0.00 79 1018.8
20260506204505 7 0 0.0 0.0 0.00 0.00 0.00 79 1018.6
20260506204005 8 0 0.0 0.0 0.00 0.00 0.00 78 1018.5
20260506203506 8 0 0.0 0.0 0.00 0.00 0.00 77 1018.6
20260506202506 8 0 0.0 0.0 0.00 0.00 0.00 75 1018.7
20260506202020 8 0 0.0 0.0 0.00 0.00 0.00 75 1018.6
20260506201505 8 0 0.0 0.0 0.00 0.00 0.00 75 1018.7
20260506200520 9 1 0.0 1.6 0.00 0.00 0.00 75 1018.9
20260506200005 9 8 0.0 3.2 0.00 0.00 0.00 75 1018.8
20260506195508 9 8 0.0 3.2 0.00 0.00 0.00 75 1018.5
20260506194505 9 0 0.0 0.0 0.00 0.00 0.00 74 1018.5
20260506194005 10 0 0.0 0.0 0.00 0.00 0.00 74 1018.5
20260506193505 10 0 0.0 0.0 0.00 0.00 0.00 73 1018.3
20260506192505 10 0 0.0 0.0 0.00 0.00 0.00 72 1018.1
20260506192005 11 1 0.0 3.2 0.00 0.00 0.00 71 1018.2
20260506191505 11 350 0.0 3.2 0.00 0.00 0.00 71 1017.9
20260506191005 11 225 0.0 1.6 0.00 0.00 0.00 70 1017.9
20260506190507 11 222 0.0 1.6 0.00 0.00 0.00 70 1017.9
20260506190006 11 0 0.0 0.0 0.00 0.00 0.00 68 1018.0
20260506185505 11 0 0.0 0.0 0.00 0.00 0.00 68 1018.1
20260506184005 12 0 0.0 0.0 0.00 0.00 0.00 64 1017.9
20260506183505 12 0 0.0 0.0 0.00 0.00 0.00 61 1018.0
20260506183006 12 0 0.0 0.0 0.00 0.00 0.00 59 1018.0
20260506182007 13 270 1.6 4.8 0.00 0.00 0.00 55 1017.8
20260506181506 14 270 1.6 4.8 0.00 0.00 0.00 53 1017.8
20260506181005 14 270 0.0 3.2 0.00 0.00 0.00 53 1017.7
20260506175505 15 261 6.4 9.7 0.00 0.00 0.00 49 1017.3
20260506175006 15 263 6.4 8.0 0.00 0.00 0.00 49 1017.4
20260506174506 15 270 6.4 11.3 0.00 0.00 0.00 49 1017.3
20260506174006 15 275 8.0 16.1 0.00 0.00 0.00 48 1017.2
20260506173021 16 203 12.9 16.1 0.00 0.00 0.00 47 1017.1
20260506172505 16 258 11.3 17.7 0.00 0.00 0.00 47 1017.1
20260506171506 16 279 6.4 17.7 0.00 0.00 0.00 48 1016.9
20260506170505 16 266 3.2 8.0 0.00 0.00 0.00 49 1016.7
20260506170006 16 260 1.6 8.0 0.00 0.00 0.00 50 1016.7
20260506165512 16 259 1.6 6.4 0.00 0.00 0.00 50 1016.8
20260506165005 16 247 1.6 6.4 0.00 0.00 0.00 48 1016.4
20260506164505 16 236 1.6 4.8 0.00 0.00 0.00 48 1016.6
20260506164005 17 265 6.4 16.1 0.00 0.00 0.00 47 1016.7
20260506163505 17 286 8.0 16.1 0.00 0.00 0.00 46 1016.4
20260506163005 17 295 6.4 12.9 0.00 0.00 0.00 44 1016.5
20260506162505 17 270 6.4 11.3 0.00 0.00 0.00 43 1016.5
20260506161505 18 282 9.7 16.1 0.00 0.00 0.00 42 1016.6
20260506161005 18 283 9.7 12.9 0.00 0.00 0.00 42 1016.5
20260506160505 18 272 11.3 16.1 0.00 0.00 0.00 42 1016.6
20260506155005 19 273 12.9 16.1 0.00 0.00 0.00 40 1016.4
20260506154005 19 275 12.9 17.7 0.00 0.00 0.00 39 1016.4
20260506153505 20 258 11.3 17.7 0.00 0.00 0.00 39 1016.4
20260506153005 20 257 9.7 14.5 0.00 0.00 0.00 37 1016.4
20260506152506 20 269 11.3 16.1 0.00 0.00 0.00 38 1016.4
20260506152005 20 278 11.3 16.1 0.00 0.00 0.00 38 1016.4
20260506151505 20 270 11.3 14.5 0.00 0.00 0.00 38 1016.2
20260506151005 20 262 11.3 16.1 0.00 0.00 0.00 38 1016.3
20260506150506 20 263 11.3 16.1 0.00 0.00 0.00 39 1016.4
20260506150005 20 292 11.3 16.1 0.00 0.00 0.00 38 1016.5
20260506145505 20 294 12.9 17.7 0.00 0.00 0.00 38 1016.5
20260506145005 20 263 12.9 17.7 0.00 0.00 0.00 38 1016.5
20260506144505 20 255 12.9 17.7 0.00 0.00 0.00 37 1016.4
20260506144006 20 269 12.9 16.1 0.00 0.00 0.00 39 1016.5
20260506143505 20 318 12.9 16.1 0.00 0.00 0.00 39 1016.4
20260506143005 20 327 12.9 16.1 0.00 0.00 0.00 37 1016.3
20260506141505 20 284 8.0 12.9 0.00 0.00 0.00 38 1016.3
20260506141005 20 279 9.7 12.9 0.00 0.00 0.00 37 1016.3
20260506140005 20 287 11.3 14.5 0.00 0.00 0.00 36 1016.4
20260506135505 20 288 11.3 16.1 0.00 0.00 0.00 35 1016.3
20260506135005 20 261 11.3 16.1 0.00 0.00 0.00 36 1016.4
20260506134508 20 251 11.3 17.7 0.00 0.00 0.00 37 1016.3
20260506134005 19 270 12.9 22.5 0.00 0.00 0.00 37 1016.4
20260506132506 20 301 14.5 20.9 0.00 0.00 0.00 35 1016.3
20260506132005 21 289 9.7 14.5 0.00 0.00 0.00 36 1016.3
20260506131506 21 290 9.7 12.9 0.00 0.00 0.00 37 1016.4
20260506130505 20 293 11.3 16.1 0.00 0.00 0.00 38 1016.3
20260506130005 20 300 9.7 12.9 0.00 0.00 0.00 41 1016.4
20260506125505 20 294 11.3 14.5 0.00 0.00 0.00 41 1016.5
20260506125005 20 282 14.5 20.9 0.00 0.00 0.00 41 1016.5
20260506124505 20 285 12.9 20.9 0.00 0.00 0.00 42 1016.3
20260506124005 20 286 9.7 20.9 0.00 0.00 0.00 42 1016.4
20260506123505 20 279 6.4 12.9 0.00 0.00 0.00 40 1016.3
20260506123005 21 279 3.2 9.7 0.00 0.00 0.00 39 1016.5
20260506122505 21 272 6.4 9.7 0.00 0.00 0.00 40 1016.6
20260506122006 21 240 8.0 12.9 0.00 0.00 0.00 39 1016.6
20260506121505 21 211 6.4 12.9 0.00 0.00 0.00 38 1016.6
20260506121005 21 258 4.8 8.0 0.00 0.00 0.00 34 1016.6
20260506120505 21 308 3.2 8.0 0.00 0.00 0.00 35 1016.6
20260506115505 19 270 8.0 12.9 0.00 0.00 0.00 37 1016.8
20260506115005 18 265 9.7 12.9 0.00 0.00 0.00 34 1017.0
20260506114005 19 271 9.7 14.5 0.00 0.00 0.00 33 1016.9
20260506112506 19 296 12.9 22.5 0.00 0.00 0.00 32 1016.8
20260506112020 19 293 11.3 17.7 0.00 0.00 0.00 32 1016.8
20260506111505 20 265 9.7 12.9 0.00 0.00 0.00 32 1016.8
20260506111006 20 270 9.7 12.9 0.00 0.00 0.00 32 1016.6
20260506110521 20 274 9.7 19.3 0.00 0.00 0.00 29 1016.6
20260506110005 20 285 8.0 19.3 0.00 0.00 0.00 30 1016.6
20260506105505 20 308 6.4 11.3 0.00 0.00 0.00 32 1016.4
20260506105006 20 297 6.4 11.3 0.00 0.00 0.00 29 1016.7
20260506103006 20 275 9.7 12.9 0.00 0.00 0.00 32 1016.3
20260506102005 20 292 9.7 14.5 0.00 0.00 0.00 32 1016.4
20260506101505 20 296 9.7 14.5 0.00 0.00 0.00 29 1016.4
20260506101005 20 293 9.7 12.9 0.00 0.00 0.00 30 1016.4
20260506100508 19 294 11.3 12.9 0.00 0.00 0.00 30 1016.5
20260506100008 19 283 11.3 12.9 0.00 0.00 0.00 29 1016.5
20260506095505 20 264 11.3 16.1 0.00 0.00 0.00 32 1016.4
20260506095007 20 282 11.3 16.1 0.00 0.00 0.00 28 1016.3
20260506094506 20 299 9.7 16.1 0.00 0.00 0.00 30 1016.4
20260506093505 19 262 11.3 12.9 0.00 0.00 0.00 29 1016.5
20260506093005 19 259 11.3 12.9 0.00 0.00 0.00 32 1016.5
20260506092506 19 273 11.3 16.1 0.00 0.00 0.00 32 1016.4
20260506092006 20 255 8.0 16.1 0.00 0.00 0.00 32 1016.4
20260506091505 20 258 6.4 12.9 0.00 0.00 0.00 33 1016.3
20260506091005 20 272 8.0 12.9 0.00 0.00 0.00 34 1016.4
20260506090505 20 280 6.4 12.9 0.00 0.00 0.00 34 1016.2
20260506090008 20 268 4.8 8.0 0.00 0.00 0.00 34 1016.2
20260506085505 20 271 4.8 9.7 0.00 0.00 0.00 34 1016.1
20260506085008 19 253 6.4 9.7 0.00 0.00 0.00 36 1016.1
20260506084506 19 253 6.4 9.7 0.00 0.00 0.00 32 1016.3
20260506084005 18 279 6.4 9.7 0.00 0.00 0.00 34 1016.1
20260506083005 18 279 6.4 9.7 0.00 0.00 0.00 34 1016.2
20260506082505 18 276 6.4 9.7 0.00 0.00 0.00 36 1016.3
20260506082009 18 276 6.4 12.9 0.00 0.00 0.00 37 1016.2
20260506081005 17 276 6.4 9.7 0.00 0.00 0.00 38 1016.2
20260506073505 15 0 0.0 0.0 0.00 0.00 0.00 44 1016.1
20260506073005 15 0 0.0 0.0 0.00 0.00 0.00 46 1016.2
20260506072505 15 0 0.0 0.0 0.00 0.00 0.00 48 1016.3
20260506071508 15 0 0.0 0.0 0.00 0.00 0.00 49 1016.2
20260506071005 14 0 0.0 0.0 0.00 0.00 0.00 53 1016.4
20260506062505 9 0 0.0 0.0 0.00 0.00 0.00 72 1016.7
20260506062005 9 0 0.0 0.0 0.00 0.00 0.00 74 1016.7
20260506061506 8 0 0.0 0.0 0.00 0.00 0.00 74 1016.7
20260506061006 8 0 0.0 0.0 0.00 0.00 0.00 75 1016.7
20260506060506 8 0 0.0 0.0 0.00 0.00 0.00 75 1016.8
20260506050505 6 0 0.0 0.0 0.00 0.00 0.00 92 1016.6
20260506045005 5 0 0.0 0.0 0.00 0.00 0.00 95 1016.8
20260506044013 5 0 0.0 0.0 0.00 0.00 0.00 94 1016.9
20260506043505 4 0 0.0 0.0 0.00 0.00 0.00 94 1017.0
20260506042505 3 0 0.0 0.0 0.00 0.00 0.00 94 1016.8
20260506042006 3 0 0.0 0.0 0.00 0.00 0.00 93 1017.1
20260506041505 3 0 0.0 0.0 0.00 0.00 0.00 93 1016.9
20260506041005 3 0 0.0 0.0 0.00 0.00 0.00 93 1017.0
20260506040505 3 0 0.0 0.0 0.00 0.00 0.00 93 1017.0
20260506040006 3 0 0.0 0.0 0.00 0.00 0.00 93 1016.9
20260506035504 3 0 0.0 0.0 0.00 0.00 0.00 93 1016.8
20260506034505 3 0 0.0 0.0 0.00 0.00 0.00 93 1016.7
20260506033505 3 0 0.0 0.0 0.00 0.00 0.00 92 1016.7
20260506033006 3 0 0.0 0.0 0.00 0.00 0.00 92 1016.6
20260506032505 3 0 0.0 0.0 0.00 0.00 0.00 92 1016.6
20260506032005 3 0 0.0 0.0 0.00 0.00 0.00 92 1016.7
20260506031505 4 0 0.0 0.0 0.00 0.00 0.00 92 1016.6
20260506031005 4 0 0.0 0.0 0.00 0.00 0.00 92 1016.6
20260506025520 4 1 0.0 1.6 0.00 0.00 0.00 93 1016.9
20260506025005 4 0 0.0 0.0 0.00 0.00 0.00 93 1016.6
20260506024505 4 0 0.0 0.0 0.00 0.00 0.00 93 1016.8
20260506024005 4 0 0.0 0.0 0.00 0.00 0.00 93 1016.8
20260506023505 4 0 0.0 0.0 0.00 0.00 0.00 93 1016.8
20260506023005 4 0 0.0 0.0 0.00 0.00 0.00 93 1016.8
20260506022505 4 0 0.0 0.0 0.00 0.00 0.00 92 1016.7
20260506021505 4 0 0.0 0.0 0.00 0.00 0.00 92 1017.0
20260506021005 4 0 0.0 0.0 0.00 0.00 0.00 92 1017.0
20260506020505 5 0 0.0 0.0 0.00 0.00 0.00 92 1017.1
20260506020005 5 0 0.0 0.0 0.00 0.00 0.00 92 1017.0
20260506015505 5 0 0.0 0.0 0.00 0.00 0.00 92 1017.1
20260506015005 5 0 0.0 0.0 0.00 0.00 0.00 92 1017.0
20260506014505 5 0 0.0 0.0 0.00 0.00 0.00 92 1016.9
20260506014006 5 0 0.0 0.0 0.00 0.00 0.00 91 1017.1
20260506013508 5 0 0.0 0.0 0.00 0.00 0.00 90 1017.1
20260506013005 5 0 0.0 0.0 0.00 0.00 0.00 90 1017.0
20260506012505 5 0 0.0 0.0 0.00 0.00 0.00 90 1017.2
20260506012007 5 0 0.0 0.0 0.00 0.00 0.00 89 1017.3
20260506011005 5 0 0.0 0.0 0.00 0.00 0.00 89 1017.2
20260506010005 6 0 0.0 0.0 0.00 0.00 0.00 89 1017.4
20260506005505 6 0 0.0 0.0 0.00 0.00 0.00 89 1017.2
20260506005006 6 0 0.0 0.0 0.00 0.00 0.00 89 1017.1
20260506004005 6 0 0.0 0.0 0.00 0.00 0.00 90 1017.1
20260506003507 5 0 0.0 0.0 0.00 0.00 0.00 89 1017.4
20260506003006 5 0 0.0 0.0 0.00 0.00 0.00 89 1017.4
20260506002506 5 0 0.0 0.0 0.00 0.00 0.00 89 1017.4
20260506002005 5 0 0.0 0.0 0.00 0.00 0.00 88 1017.5
20260506001505 5 0 0.0 0.0 0.00 0.00 0.00 88 1017.5
20260506001005 5 0 0.0 0.0 0.00 0.00 0.00 87 1017.6
20260506000505 6 0 0.0 0.0 0.00 0.00 0.00 87 1017.6
20260506000006 6 0 0.0 0.0 0.00 0.00 0.00 87 1017.7
20260505234505 5 0 0.0 0.0 0.00 0.00 0.00 88 1017.6
20260505234008 5 0 0.0 0.0 0.00 0.00 0.00 88 1017.8
20260505233506 5 0 0.0 0.0 0.00 0.00 0.00 89 1018.1
20260505233007 5 0 0.0 0.0 0.00 0.00 0.00 88 1017.9
20260505232508 5 0 0.0 0.0 0.00 0.00 0.00 88 1018.0